Weather History for Johnstown, PA

Change the Weather History Date:

Monday, July 8, 2013

  Actual Average Record
Temperature  
Mean Temperature 69 °F 69 °F  
Max Temperature 75 °F 78 °F 100 °F (1988)
Min Temperature 63 °F 60 °F 44 °F (1894)
Degree Days  
Heating Degree Days 0 1  
Month to date heating degree days 0 8  
Since 1 June heating degree days 63 87  
Since 1 July heating degree days 0 8  
Cooling Degree Days 4 5  
Month to date cooling degree days 54 35  
Year to date cooling degree days 163 132  
Since 1 June cooling degree days 123 108  
Growing Degree Days 18 (Base 50)    
Moisture  
Dew Point 62 °F    
Average Humidity 81    
Maximum Humidity 100    
Minimum Humidity 61    
Precipitation  
Precipitation 0.01 in 0.10 in 2.20 in (1980)
Month to date precipitation 0.83 0.93  
Year to date precipitation 9.07 21.63  
Sea Level Pressure  
Sea Level Pressure 30.14 in    
Wind  
Wind Speed 6 mph (WSW)    
Max Wind Speed 17 mph    
Max Gust Speed 24 mph    
Visibility 7 miles    
Events Rain    
T = Trace of Precipitation, MM = Missing Value Source: NWS Daily Summary

Daily Weather History Graph

Daily Weather History Graph

Search for Another Location

Airport:

Trip Planner

Search our weather history database for the weather conditions in past years. The results will help you decide how hot, cold, wet, or windy it might be!

Date:

Astronomy

Jul. 08, 2013 Rise Set
Actual Time 5:53 AM EDT 8:47 PM EDT
Civil Twilight 5:20 AM EDT 9:19 PM EDT
Nautical Twilight 4:39 AM EDT 10:00 PM EDT
Astronomical Twilight 3:52 AM EDT 10:48 PM EDT
Moon 6:21 AM EDT (7/8) 8:48 PM EDT (7/8)
Length of Visible Light 15h 58m
Length of Day
14h 53m
Waxing Crescent, 0% of the Moon is Illuminated
Jul 8
Waxing Crescent
Jul 15
First Quarter
Jul 22
Full
Jul 29
Last Quarter
Aug 6
New

Hourly Weather History & Observations

Time (EDT) Temp. Dew Point Humidity Pressure Visibility Wind Dir Wind Speed Gust Speed Precip Events Conditions
12:42 AM 64.4 °F 64.4 °F 100% 30.14 in 7.0 mi WSW 5.8 mph - N/A   Overcast
12:54 AM 64.9 °F 64.0 °F 97% 30.10 in 7.0 mi SW 4.6 mph - N/A   Overcast
1:54 AM 64.9 °F 64.0 °F 97% 30.10 in 6.0 mi WSW 4.6 mph - N/A   Overcast
2:54 AM 64.9 °F 64.0 °F 97% 30.11 in 4.0 mi WSW 6.9 mph - N/A   Overcast
3:20 AM 64.4 °F 62.6 °F 94% 30.14 in 3.0 mi West 8.1 mph - N/A   Overcast
3:43 AM 64.4 °F 62.6 °F 94% 30.14 in 3.0 mi West 5.8 mph - N/A   Overcast
3:54 AM 64.9 °F 63.0 °F 93% 30.11 in 4.0 mi West 6.9 mph - N/A   Overcast
4:54 AM 64.9 °F 63.0 °F 93% 30.11 in 5.0 mi West 5.8 mph - N/A   Overcast
5:26 AM 64.4 °F 62.6 °F 94% 30.14 in 5.0 mi West 4.6 mph - N/A   Mostly Cloudy
5:36 AM 64.4 °F 62.6 °F 94% 30.15 in 5.0 mi West 5.8 mph - N/A   Overcast
5:54 AM 64.0 °F 62.1 °F 93% 30.12 in 6.0 mi West 4.6 mph - N/A   Overcast
6:03 AM 64.4 °F 62.6 °F 94% 30.15 in 5.0 mi WSW 5.8 mph - N/A   Mostly Cloudy
6:07 AM 64.4 °F 60.8 °F 88% 30.15 in 6.0 mi WSW 4.6 mph - N/A   Mostly Cloudy
6:17 AM 62.6 °F 60.8 °F 94% 30.15 in 5.0 mi West 3.5 mph - N/A   Scattered Clouds
6:54 AM 64.0 °F 62.1 °F 93% 30.13 in 6.0 mi West 3.5 mph - N/A   Mostly Cloudy
7:13 AM 64.4 °F 62.6 °F 94% 30.15 in 6.0 mi West 3.5 mph - N/A   Mostly Cloudy
7:54 AM 64.9 °F 62.1 °F 90% 30.14 in 5.0 mi WSW 4.6 mph - 0.00 in   Overcast
8:16 AM 64.4 °F 62.6 °F 94% 30.17 in 5.0 mi WSW 6.9 mph - N/A   Overcast
8:24 AM 64.4 °F 62.6 °F 94% 30.17 in 5.0 mi WSW 6.9 mph - N/A   Overcast
8:36 AM 64.4 °F 62.6 °F 94% 30.17 in 5.0 mi SW 6.9 mph - N/A   Overcast
8:44 AM 64.4 °F 62.6 °F 94% 30.17 in 6.0 mi WSW 8.1 mph - N/A   Overcast
8:54 AM 64.0 °F 62.1 °F 93% 30.15 in 5.0 mi WSW 8.1 mph - N/A   Overcast
9:01 AM 64.4 °F 62.6 °F 94% 30.17 in 4.0 mi WSW 8.1 mph - N/A   Overcast
9:08 AM 64.4 °F 62.6 °F 94% 30.17 in 5.0 mi WSW 9.2 mph - N/A   Mostly Cloudy
9:23 AM 64.4 °F 60.8 °F 88% 30.18 in 10.0 mi WSW 8.1 mph - N/A   Scattered Clouds
9:54 AM 66.0 °F 61.0 °F 84% 30.16 in 10.0 mi WSW 5.8 mph - N/A   Scattered Clouds
10:31 AM 68.0 °F 60.8 °F 78% 30.19 in 10.0 mi WSW 8.1 mph - N/A   Mostly Cloudy
10:39 AM 69.8 °F 62.6 °F 78% 30.19 in 10.0 mi West 9.2 mph - N/A   Mostly Cloudy
10:51 AM 68.0 °F 60.8 °F 78% 30.19 in 10.0 mi WSW 9.2 mph - N/A   Mostly Cloudy
10:54 AM 68.0 °F 61.0 °F 78% 30.16 in 10.0 mi West 5.8 mph - N/A   Mostly Cloudy
11:12 AM 69.8 °F 60.8 °F 73% 30.19 in 10.0 mi West 5.8 mph - N/A   Scattered Clouds
11:54 AM 71.1 °F 60.1 °F 68% 30.15 in 10.0 mi West 8.1 mph - N/A   Mostly Cloudy
12:44 PM 73.4 °F 60.8 °F 65% 30.18 in 10.0 mi WNW 8.1 mph - N/A   Mostly Cloudy
12:54 PM 72.0 °F 60.1 °F 66% 30.14 in 10.0 mi West 9.2 mph - N/A   Mostly Cloudy
1:20 PM 73.4 °F 59.0 °F 61% 30.17 in 10.0 mi WSW 8.1 mph - N/A   Mostly Cloudy
1:28 PM 73.4 °F 60.8 °F 65% 30.17 in 10.0 mi WSW 10.4 mph - N/A   Mostly Cloudy
1:54 PM 73.9 °F 59.0 °F 59% 30.13 in 10.0 mi WNW 10.4 mph 17.3 mph N/A   Mostly Cloudy
2:54 PM 73.0 °F 60.1 °F 64% 30.12 in 10.0 mi WSW 8.1 mph - N/A   Mostly Cloudy
3:54 PM 75.0 °F 62.1 °F 64% 30.10 in 10.0 mi West 6.9 mph - N/A   Mostly Cloudy
4:54 PM 72.0 °F 62.1 °F 71% 30.11 in 10.0 mi West 15.0 mph 21.9 mph N/A   Mostly Cloudy
5:54 PM 72.0 °F 63.0 °F 73% 30.11 in 10.0 mi West 4.6 mph - 0.00 in   Mostly Cloudy
6:37 PM 69.8 °F 64.4 °F 83% 30.14 in 2.5 mi Calm Calm - 0.01 in Rain Light Rain
6:44 PM 69.8 °F 64.4 °F 83% 30.13 in 9.0 mi Calm Calm - 0.01 in Rain Light Rain
6:54 PM 71.1 °F 64.9 °F 81% 30.10 in 9.0 mi Calm Calm - 0.01 in   Mostly Cloudy
7:54 PM 71.1 °F 64.9 °F 81% 30.11 in 9.0 mi WSW 4.6 mph - N/A   Clear
8:54 PM 69.1 °F 64.0 °F 84% 30.13 in 8.0 mi SW 3.5 mph - N/A   Clear
9:54 PM 69.1 °F 64.0 °F 84% 30.13 in 9.0 mi SW 4.6 mph - N/A   Scattered Clouds
10:52 PM 69.8 °F 64.4 °F 83% 30.17 in 8.0 mi SSW 5.8 mph - N/A   Mostly Cloudy
10:54 PM 69.1 °F 64.0 °F 84% 30.14 in 8.0 mi SSW 5.8 mph - N/A   Mostly Cloudy
11:16 PM 69.8 °F 64.4 °F 83% 30.17 in 8.0 mi SW 5.8 mph - N/A   Mostly Cloudy
11:54 PM 68.0 °F 64.0 °F 87% 30.13 in 8.0 mi SW 4.6 mph - N/A   Partly Cloudy